This is the latest recevied weather packets stored in our database for station/object SP6PGH-13. If no packets are shown the sender has not sent any weather packets the latest 10 day(s).
| Time | Temp. | Humidity | Pressure | Rain* | Wind** | Luminosity | Snow |
|---|---|---|---|---|---|---|---|
| 1788377898 | 15° C | 86% | 1005.4 hPa | - | - | - | - |
| 1788376997 | 15.56° C | 86% | 1005.7 hPa | - | - | - | - |
| 1788376096 | 15.56° C | 84% | 1005.7 hPa | - | - | - | - |
| 1788375195 | 16.11° C | 80% | 1005.7 hPa | - | - | - | - |
| 1788374294 | 16.67° C | 80% | 1005.6 hPa | - | - | - | - |
| 1788373394 | 16.67° C | 82% | 1005.7 hPa | - | - | - | - |
| 1788372492 | 17.22° C | 79% | 1005.6 hPa | - | - | - | - |
| 1788371591 | 17.78° C | 77% | 1005.4 hPa | - | - | - | - |
| 1788370691 | 18.33° C | 77% | 1005.4 hPa | - | - | 1 W/m² | - |
| 1788369789 | 18.89° C | 70% | 1005.2 hPa | - | - | 11 W/m² | - |
| 1788368888 | 19.44° C | 67% | 1005.1 hPa | - | - | 17 W/m² | - |
| 1788367987 | 20.56° C | 62% | 1005 hPa | - | - | 33 W/m² | - |
| 1788367086 | 21.11° C | 59% | 1005 hPa | - | - | 51 W/m² | - |
| 1788366185 | 21.11° C | 55% | 1005 hPa | - | - | 56 W/m² | - |
| 1788365284 | 21.67° C | 52% | 1005.1 hPa | - | - | 45 W/m² | - |
| 1788364383 | 24.44° C | 45% | 1005.2 hPa | - | - | 139 W/m² | - |
| 1788363482 | 22.78° C | 48% | 1005.2 hPa | - | - | 171 W/m² | - |
| 1788362581 | 23.33° C | 47% | 1005.3 hPa | - | - | 131 W/m² | - |
| 1788361680 | 22.78° C | 52% | 1005.6 hPa | - | - | 176 W/m² | - |
| 1788360779 | 22.78° C | 52% | 1005.5 hPa | - | - | 176 W/m² | - |
| 1788359878 | 22.22° C | 55% | 1005.6 hPa | - | - | 166 W/m² | - |
| 1788358976 | 22.78° C | 56% | 1005.6 hPa | - | - | 191 W/m² | - |
| 1788358076 | 22.78° C | 56% | 1005.6 hPa | - | - | 225 W/m² | - |
| 1788357175 | 22.78° C | 54% | 1005.6 hPa | - | - | 197 W/m² | - |
| 1788356274 | 23.33° C | 57% | 1005.6 hPa | - | - | 253 W/m² | - |
* Rain since midnight (hover to see other rain measurements)
** Current wind speed in m/s (hover to see current wind gust speed)